This is the latest recevied weather packets stored in our database for station/object KA1JKB. If no packets are shown the sender has not sent any weather packets the latest 10 day(s).
| Time | Temp. | Humidity | Pressure | Rain* | Wind** | Luminosity | Snow |
|---|---|---|---|---|---|---|---|
| 1777723595 | 3.33° C | 77% | 1015.3 hPa | 0 mm | - | 140 W/m² | - |
| 1777723292 | 3.33° C | 78% | 1015.3 hPa | 0 mm | - | 132 W/m² | - |
| 1777722990 | 2.78° C | 79% | 1015.3 hPa | 0 mm | - | 117 W/m² | - |
| 1777722686 | 2.78° C | 78% | 1015.2 hPa | 0 mm | - | 72 W/m² | - |
| 1777722382 | 2.78° C | 80% | 1015.3 hPa | 0 mm | - | 56 W/m² | - |
| 1777722080 | 2.78° C | 81% | 1015.2 hPa | 0 mm | - | 51 W/m² | - |
| 1777721777 | 2.22° C | 82% | 1015.1 hPa | 0 mm | - | 47 W/m² | - |
| 1777721476 | 2.22° C | 83% | 1014.8 hPa | 0 mm | - | 42 W/m² | - |
| 1777721173 | 1.67° C | 85% | 1015 hPa | 0 mm | - | 39 W/m² | - |
| 1777720870 | 1.11° C | 86% | 1014.9 hPa | 0 mm | - | 35 W/m² | - |
| 1777720568 | 1.11° C | 87% | 1015.1 hPa | 0 mm | - | 32 W/m² | - |
| 1777720265 | 0.56° C | 89% | 1015 hPa | 0 mm | - | 28 W/m² | - |
| 1777719962 | 0° C | 90% | 1014.8 hPa | 0 mm | - | 24 W/m² | - |
| 1777719660 | -0.56° C | 90% | 1014.9 hPa | 0 mm | - | 20 W/m² | - |
| 1777719357 | -0.56° C | 90% | 1014.8 hPa | 0 mm | - | 17 W/m² | - |
| 1777719054 | -0.56° C | 90% | 1014.8 hPa | 0 mm | - | 12 W/m² | - |
| 1777718751 | -0.56° C | 90% | 1014.8 hPa | 0 mm | - | 9 W/m² | - |
| 1777718449 | -0.56° C | 89% | 1014.8 hPa | 0 mm | - | 7 W/m² | - |
| 1777718146 | -0.56° C | 89% | 1014.7 hPa | 0 mm | - | 4 W/m² | - |
| 1777717844 | -0.56° C | 88% | 1014.7 hPa | 0 mm | - | 1 W/m² | - |
| 1777717540 | -0.56° C | 88% | 1014.9 hPa | 0 mm | - | 0 W/m² | - |
| 1777717237 | -0.56° C | 88% | 1014.8 hPa | 0 mm | - | 0 W/m² | - |
| 1777716935 | 0° C | 88% | 1014.8 hPa | 0 mm | - | 0 W/m² | - |
| 1777716633 | 0° C | 88% | 1014.8 hPa | 0 mm | - | 0 W/m² | - |
| 1777716331 | 0° C | 88% | 1014.7 hPa | 0 mm | - | 0 W/m² | - |
* Rain latest hour (hover to see other rain measurements)
** Current wind speed in m/s (hover to see current wind gust speed)